Current weather by "City, St" or "zip code"  
 

Current Conditions: Worcester, Worcester Regional Airport, MA

Fair


57.0 F

Last Updated on Sep 18 2020, 3:54 am EDT
Humidity: 72%
Wind Speed: NE 9.2 mph
Barometer 29.98 in
Dewpoint: 48.0 F
Visibility: 10.00 mi
Precip: --
Heat Index: NA
Wind Chill: 55 F
Current conditions at:

Worcester, Worcester Regional Airport, MA (KORH)

Lat: 42.27056 Lon: 71.87306

Local Radar Image active severe weather and emergency alerts image image weather storm and storm spotter reports image weather observation monitoring service image
Local
Radar
Active
Alerts
Storm Reports Obs
Monitoring

Sign-up For Email & Text Message Weather Alert Notification Services



Advertise Here

Observation History for Worcester, Worcester Regional Airport, MA


Time Wind
(mph)
Vis
(mi)
Weather Precip (in) Temperature (F) Relative
Humidity
Wind
Chill
(F)
Heat
Index
(F)
Pressure
Air Dwpt altimeter
(in)
sea level
(mb)
Rmks
3:54 am EDT NE 9.2 10.00 Fair -- 57.0 48.0 72% 55 NA 29.98 1015.1
2:54 am EDT NE 8.1 10.00 Fair -- 57.0 48.0 72% 55 NA 29.99 1015.2
1:54 am EDT NE 9.2 10.00 Fair -- 58.0 50.0 75% 56 NA 30.00 1015.7
12:54 am EDT NE 8.1 10.00 Fair -- 58.0 51.1 78% 56 NA 30.01 1016.2
11:54 pm EDT NE 6.9 10.00 Fair -- 59.0 52.0 78% 58 NA 30.02 1016.3
10:54 pm EDT NE 4.6 10.00 Fair -- 61.0 52.0 72% 61 NA 30.02 1016.4
9:54 pm EDT NE 4.6 10.00 Fair -- 63.0 55.0 76% 64 NA 30.02 1016.5
8:54 pm EDT 10.00 Mostly Cloudy -- 67.0 54.0 63% NA NA 30.02 1016.2
7:54 pm EDT SW 4.6 10.00 Mostly Cloudy -- 63.0 55.9 78% 64 NA 30.01 1016.1
6:54 pm EDT SW 3.5 10.00 Fair -- 66.0 57.0 73% NA NA 29.99 1015.5
5:54 pm EDT W 3.5 10.00 Fair -- 68.0 55.9 65% NA NA 29.99 1015.5
4:54 pm EDT W 4.6 10.00 Fair -- 70.0 55.0 59% NA NA 29.99 1015.4
3:54 pm EDT W 5.8 10.00 Fair -- 71.0 53.1 53% NA NA 30.00 1015.7
2:54 pm EDT SW 9.2 10.00 Fair -- 71.0 52.0 51% NA NA 30.01 1015.9
1:54 pm EDT SW 6.9 10.00 Fair -- 71.0 53.1 53% NA NA 30.01 1016.0
12:54 pm EDT W 8.1 10.00 Fair -- 70.0 53.1 55% NA NA 30.03 1016.6
11:54 am EDT W 6.9 10.00 Fair -- 69.0 55.0 61% NA NA 30.04 1016.9
10:54 am EDT W 10.4 10.00 Fair -- 66.0 54.0 65% NA NA 30.05 1017.6
9:54 am EDT W 12.7 10.00 Fair -- 63.0 54.0 73% 62 NA 30.06 1017.8
8:54 am EDT SW 12.7 10.00 Fair -- 61.0 54.0 78% 59 NA 30.05 1017.6
7:54 am EDT SW 9.2 10.00 Fair -- 58.0 53.1 84% 56 NA 30.05 1017.6
6:54 am EDT W 10.4 10.00 Fair -- 57.0 52.0 83% 55 NA 30.04 1017.2
5:54 am EDT W 9.2 10.00 Fair -- 57.0 53.1 87% 55 NA 30.04 1017.2
4:54 am EDT SW 11.5 10.00 Fair -- 57.0 53.1 87% 54 NA 30.04 1017.1

Regional Weather Observation


Orange Municipal Airport, MA (KORE)

Overcast
58.0 F

Worcester, Worcester Regional Airport, MA (KORH)

Fair
57.0 F

Fitchburg, Fitchburg Municipal Airport, MA (KFIT)

Overcast
60.0 F

Keene, Dillant-Hopkins Airport, NH (KEEN)

Overcast
57.0 F

()


F

Chicopee Falls / Westover Air Force Base, MA (KCEF)

Fair
57.0 F